Le nostre stazioni meteo in Italia

Pubblicità
Il mio iltempo24.it
Monte Settepani, Italia (16111): Temperatura & dewpoint: 02.07.2020 12:00:00 - 08.07.2020 12:00:00 (CEST)Monte Settepani, Italia (16111): velocità del vento: 02.07.2020 12:00:00 - 08.07.2020 12:00:00 (CEST)Monte Settepani, Italia (16111): direzione del vento: 02.07.2020 12:00:00 - 08.07.2020 12:00:00 (CEST)Monte Settepani, Italia (16111): precipitazioni: 02.07.2020 12:00:00 - 08.07.2020 12:00:00 (CEST)
Data & Tempo tt [°C] td [°C] ff [km/h] ff [kn] dd rr [mm]
08.07.2020 12:00:00 - - - - - -
08.07.2020 11:00:00 16,6 14,0 15 8 ENE -
08.07.2020 10:00:00 15,1 13,2 18 10 N -
08.07.2020 09:00:00 14,8 12,9 16 9 N -
08.07.2020 08:00:00 12,8 10,8 31 17 N 0,0
08.07.2020 07:00:00 12,0 11,5 31 17 NNO -
08.07.2020 06:00:00 12,3 11,0 31 17 NNO -
08.07.2020 05:00:00 12,4 11,3 39 21 NNO -
08.07.2020 04:00:00 12,9 12,1 37 20 NNO -
08.07.2020 03:00:00 13,3 12,3 29 16 N -
08.07.2020 02:00:00 13,1 12,6 26 14 N 0,0
08.07.2020 01:00:00 13,5 12,8 24 13 N -
08.07.2020 00:00:00 13,2 12,7 21 11 NNO -
07.07.2020 23:00:00 13,4 13,3 21 11 NNO -
07.07.2020 22:00:00 13,7 13,5 24 13 NNO -
07.07.2020 21:00:00 14,4 13,6 26 14 NNO -
07.07.2020 20:00:00 15,4 14,7 21 11 N 0,0
07.07.2020 19:00:00 16,3 14,4 22 12 N -
07.07.2020 18:00:00 16,9 14,5 22 12 N -
07.07.2020 17:00:00 17,3 14,7 22 12 N -
07.07.2020 16:00:00 17,2 15,1 26 14 N -
07.07.2020 15:00:00 17,4 16,0 21 11 N -
07.07.2020 14:00:00 16,4 15,0 34 18 N 0,0
07.07.2020 13:00:00 15,6 14,9 28 15 N -
07.07.2020 12:00:00 15,3 12,6 22 12 NNO -
07.07.2020 11:00:00 14,3 9,3 24 13 O -
07.07.2020 10:00:00 14,0 6,8 21 11 N -
07.07.2020 09:00:00 13,6 5,9 24 13 N -
07.07.2020 08:00:00 12,9 4,8 37 20 N 0,0
07.07.2020 07:00:00 13,2 4,0 39 21 N -
07.07.2020 06:00:00 13,0 3,8 35 19 N -
07.07.2020 05:00:00 13,9 4,7 37 20 N -
07.07.2020 04:00:00 14,2 6,7 31 17 N -
07.07.2020 03:00:00 15,8 13,4 24 13 N -
07.07.2020 02:00:00 17,6 16,7 34 18 N 0,0
07.07.2020 01:00:00 18,4 17,4 28 15 N -
07.07.2020 00:00:00 19,0 18,3 28 15 N -
06.07.2020 23:00:00 19,2 18,7 21 11 N -
06.07.2020 22:00:00 19,2 19,1 15 8 NNO -
06.07.2020 21:00:00 19,7 19,6 9 5 NO -
06.07.2020 20:00:00 18,5 17,6 8 4 SO 0,0
06.07.2020 19:00:00 19,1 18,2 13 7 SSO -
06.07.2020 18:00:00 18,7 17,8 16 9 SSO -
06.07.2020 17:00:00 20,1 19,0 16 9 SSO -
06.07.2020 16:00:00 20,6 19,4 18 10 S -
06.07.2020 15:00:00 21,3 19,2 16 9 S -
06.07.2020 14:00:00 21,5 20,4 13 7 S 0,0
06.07.2020 13:00:00 21,8 20,7 9 5 S -
06.07.2020 12:00:00 22,1 20,5 5 3 S -
06.07.2020 11:00:00 21,5 20,3 2 1 N -
06.07.2020 10:00:00 20,2 18,8 4 2 SSE -
06.07.2020 09:00:00 19,2 18,2 4 2 S -
06.07.2020 08:00:00 18,3 17,6 2 1 ESE 0,0
06.07.2020 07:00:00 17,4 17,3 8 4 N -
06.07.2020 06:00:00 16,1 16,0 9 5 N -
06.07.2020 05:00:00 16,8 16,7 9 5 N -
06.07.2020 04:00:00 17,0 16,9 9 5 N -
06.07.2020 03:00:00 17,4 17,3 8 4 N -
06.07.2020 02:00:00 17,8 17,7 8 4 NNO 0,0
06.07.2020 01:00:00 17,9 17,4 5 3 N -
06.07.2020 00:00:00 18,1 17,4 2 1 OSO -
05.07.2020 23:00:00 18,4 17,4 4 2 SSO -
05.07.2020 22:00:00 18,2 17,3 0 0 N -
05.07.2020 21:00:00 17,8 16,8 4 2 SSO -
05.07.2020 20:00:00 18,5 17,3 4 2 SSO 0,0
05.07.2020 19:00:00 19,2 17,8 8 4 SSO -
05.07.2020 18:00:00 19,7 16,9 9 5 S -
05.07.2020 17:00:00 20,7 18,4 8 4 S -
05.07.2020 16:00:00 21,5 20,1 8 4 S -
05.07.2020 15:00:00 21,2 19,8 8 4 S -
05.07.2020 14:00:00 20,7 19,5 4 2 E 0,0
05.07.2020 13:00:00 20,8 19,7 5 3 SSE -
05.07.2020 12:00:00 20,0 17,1 4 2 NE -
05.07.2020 11:00:00 19,9 17,8 2 1 N -
05.07.2020 10:00:00 18,4 15,9 4 2 NNE -
05.07.2020 09:00:00 17,8 15,0 8 4 NNE -
05.07.2020 08:00:00 16,5 13,9 13 7 N 0,0
05.07.2020 07:00:00 16,0 13,0 13 7 N -
05.07.2020 06:00:00 14,4 10,8 9 5 N -
05.07.2020 05:00:00 15,0 13,0 9 5 N -
05.07.2020 04:00:00 14,8 13,3 8 4 N -
05.07.2020 03:00:00 15,7 14,5 5 3 NNE -
05.07.2020 02:00:00 15,2 14,0 2 1 OSO 0,0
05.07.2020 01:00:00 15,4 14,2 5 3 SSO -
05.07.2020 00:00:00 15,5 14,8 2 1 SO -
04.07.2020 23:00:00 15,4 14,5 9 5 SSO -
04.07.2020 22:00:00 15,2 14,7 11 6 SSO -
04.07.2020 21:00:00 15,5 14,8 11 6 S -
04.07.2020 20:00:00 17,4 15,0 2 1 NNO 0,0
04.07.2020 19:00:00 18,5 14,7 5 3 N -
04.07.2020 18:00:00 18,6 15,0 9 5 N -
04.07.2020 17:00:00 19,1 15,5 9 5 SO -
04.07.2020 16:00:00 19,5 15,7 8 4 OSO -
04.07.2020 15:00:00 18,5 14,5 8 4 ESE -
04.07.2020 14:00:00 17,7 14,9 11 6 NO 0,0
04.07.2020 13:00:00 16,8 14,9 13 7 SSO -
04.07.2020 12:00:00 15,8 14,4 15 8 N -
04.07.2020 11:00:00 14,6 13,6 16 9 N -
04.07.2020 10:00:00 13,1 12,8 22 12 NNO -
04.07.2020 09:00:00 12,4 11,9 24 13 NNO -
04.07.2020 08:00:00 11,5 11,5 22 12 NO -
04.07.2020 07:00:00 10,6 10,6 22 12 N -
04.07.2020 06:00:00 10,3 10,3 28 15 N -
04.07.2020 05:00:00 10,5 10,5 22 12 SSO -
04.07.2020 04:00:00 10,8 10,5 24 13 E -
04.07.2020 03:00:00 10,9 10,6 24 13 NNO -
04.07.2020 02:00:00 10,5 10,3 24 13 NNO -
04.07.2020 01:00:00 10,1 10,1 28 15 NNO -
04.07.2020 00:00:00 9,4 9,4 26 14 N -
03.07.2020 23:00:00 10,0 10,0 22 12 E -
03.07.2020 22:00:00 10,5 10,5 39 21 N -
03.07.2020 21:00:00 10,9 10,9 18 10 N -
03.07.2020 20:00:00 10,9 10,9 21 11 ONO 0,0
03.07.2020 19:00:00 12,7 12,7 16 9 OSO -
03.07.2020 18:00:00 15,2 15,1 9 5 ENE -
03.07.2020 17:00:00 16,4 16,3 9 5 NNE -
03.07.2020 16:00:00 17,9 17,8 5 3 E -
03.07.2020 15:00:00 16,7 16,6 4 2 ONO -
03.07.2020 14:00:00 18,2 17,3 11 6 NNE 0,0
03.07.2020 13:00:00 18,5 17,8 8 4 NE -
03.07.2020 12:00:00 18,1 16,9 5 3 S -
03.07.2020 11:00:00 17,7 16,7 5 3 ENE -
03.07.2020 10:00:00 16,6 15,4 11 6 NNO -
03.07.2020 09:00:00 15,8 13,9 16 9 NO -
03.07.2020 08:00:00 16,0 13,4 21 11 NNO 0,0
03.07.2020 07:00:00 15,8 12,1 21 11 NNO -
03.07.2020 06:00:00 16,0 11,5 18 10 NNO -
03.07.2020 05:00:00 16,0 13,0 16 9 NNO -
03.07.2020 04:00:00 16,4 13,2 21 11 NNO -
03.07.2020 03:00:00 16,8 12,3 15 8 N -
03.07.2020 02:00:00 17,4 11,6 9 5 ENE 0,0
03.07.2020 01:00:00 18,0 12,2 5 3 NNE -
03.07.2020 00:00:00 18,5 12,0 9 5 SSE -
02.07.2020 23:00:00 17,5 12,6 11 6 SSO -
02.07.2020 22:00:00 17,6 14,4 4 2 NO -
02.07.2020 21:00:00 16,8 14,2 13 7 SO -
02.07.2020 20:00:00 16,0 15,1 11 6 O 0,0
02.07.2020 19:00:00 16,7 16,6 9 5 SO -
02.07.2020 18:00:00 16,7 16,6 13 7 SSO -
02.07.2020 17:00:00 16,5 16,4 9 5 SO -
02.07.2020 16:00:00 18,1 18,0 9 5 S -
02.07.2020 15:00:00 18,9 18,8 11 6 S -
02.07.2020 14:00:00 18,6 18,5 11 6 S 0,0
02.07.2020 13:00:00 19,2 19,1 8 4 S -
02.07.2020 12:00:00 20,1 20,0 4 2 SSO -

tt = Temperatura
td = dewpoint
ff = velocità del vento
dd = direzione del vento
rr = precipitazioni

Stazioni seguenti

WeatherPro
AMSI
MeteoEarth